DW7371 Weather Reports


Display with metric or nautical units.
time (UTC)temp
F
wind
direction
speed
MPH
gust
MPH
rain 1hr
in
rain 24hr
in
rain mn
in
humidity
%
barometer
mb
20260902191313 65 235 6.0 19.0 0.00 0.00 0.00 67 1000.8
20260902190306 66 187 7.0 19.0 0.00 0.00 0.00 66 1000.9
20260902185330 65 167 7.0 18.0 0.00 0.00 0.00 68 1001.1
20260902184349 65 246 7.0 21.0 0.00 0.00 0.00 69 1001.3
20260902183402 64 212 7.0 21.0 0.00 0.00 0.00 70 1001.3
20260902181250 64 186 8.0 24.0 0.00 0.00 0.00 72 1001.4
20260902180217 64 186 8.0 24.0 0.00 0.00 0.00 72 1001.6
20260902175202 64 161 7.0 18.0 0.00 0.00 0.00 72 1001.5
20260902174157 64 155 8.0 21.0 0.00 0.00 0.00 72 1001.6
20260902173128 63 189 6.0 21.0 0.00 0.00 0.00 74 1001.7
20260902172119 63 179 5.0 17.0 0.00 0.00 0.00 75 1001.9
20260902165905 63 171 5.0 21.0 0.00 0.00 0.00 76 1002.0
20260902164857 62 109 6.0 21.0 0.00 0.00 0.00 77 1002.1
20260902163835 62 155 5.0 15.0 0.00 0.00 0.00 78 1002.2
20260902161711 62 244 7.0 18.0 0.00 0.00 0.00 79 1002.2
20260902160729 62 161 8.0 18.0 0.00 0.00 0.00 79 1002.2
20260902155731 61 185 8.0 22.0 0.00 0.00 0.00 81 1002.3
20260902154753 60 151 7.0 22.0 0.00 0.00 0.00 82 1002.4
20260902153748 60 150 8.0 18.0 0.00 0.00 0.00 82 1002.5
20260902152716 61 169 8.0 18.0 0.00 0.00 0.00 81 1002.4
20260902151645 61 163 7.0 20.0 0.00 0.00 0.00 81 1002.4
20260902150656 60 187 10.0 20.0 0.00 0.00 0.00 82 1002.5
20260902145702 61 180 8.0 19.0 0.00 0.00 0.00 81 1002.5
20260902144649 61 182 6.0 17.0 0.00 0.00 0.00 81 1002.7
20260902143619 61 153 6.0 17.0 0.00 0.00 0.00 81 1002.8
20260902142605 60 131 4.0 10.0 0.00 0.00 0.00 81 1002.9
20260902141620 60 179 3.0 14.0 0.00 0.00 0.00 81 1003.0
20260902140638 60 90 5.0 14.0 0.00 0.00 0.00 82 1003.0
20260902135631 60 238 4.0 13.0 0.00 0.00 0.00 82 1002.9
20260902134634 60 130 5.0 14.0 0.00 0.00 0.00 83 1003.0
20260902133617 59 191 4.0 14.0 0.00 0.00 0.00 85 1003.0
20260902131445 59 182 6.0 17.0 0.00 0.00 0.00 85 1002.9
20260902130438 59 222 5.0 17.0 0.00 0.00 0.00 85 1002.9
20260902124339 59 148 4.0 15.0 0.00 0.00 0.00 85 1003.1
20260902123331 59 164 3.0 15.0 0.00 0.00 0.00 86 1003.2
20260902122305 59 205 3.0 15.0 0.00 0.00 0.00 85 1003.3
20260902121247 59 125 4.0 12.0 0.00 0.00 0.00 85 1003.3
20260902120238 59 203 3.0 12.0 0.00 0.00 0.00 85 1003.6
20260902115228 59 263 4.0 11.0 0.00 0.00 0.00 84 1003.7
20260902114245 60 168 4.0 11.0 0.00 0.00 0.00 83 1003.7
20260902113246 60 192 2.0 9.0 0.00 0.00 0.00 83 1003.8
20260902112306 60 211 2.0 12.0 0.00 0.00 0.00 82 1003.8
20260902111328 60 345 3.0 12.0 0.00 0.00 0.00 81 1003.9
20260902110344 60 167 3.0 12.0 0.00 0.00 0.00 81 1004.1
20260902104205 59 205 3.0 12.0 0.00 0.00 0.00 82 1004.3
20260902103157 59 240 1.0 8.0 0.00 0.00 0.00 82 1004.3
20260902101018 59 125 2.0 9.0 0.00 0.00 0.00 82 1004.4
20260902095949 59 219 1.0 8.0 0.00 0.00 0.00 83 1004.4
20260902094928 59 53 2.0 8.0 0.00 0.00 0.00 83 1004.5
20260902093859 60 105 1.0 12.0 0.00 0.00 0.00 83 1004.6
20260902092914 60 76 2.0 12.0 0.00 0.00 0.00 83 1004.7
20260902091841 60 126 3.0 11.0 0.00 0.00 0.00 84 1004.9
20260902090906 59 171 2.0 11.0 0.00 0.00 0.00 85 1005.0
20260902085845 59 128 1.0 11.0 0.00 0.00 0.00 85 1005.0
20260902083728 59 142 0.0 3.0 0.00 0.00 0.00 86 1005.2
20260902082703 59 261 1.0 6.0 0.00 0.00 0.00 86 1005.3
20260902080557 59 131 1.0 6.0 0.00 0.00 0.00 86 1005.3
20260902074437 60 161 2.0 10.0 0.00 0.00 0.00 86 1005.4
20260902073409 60 114 2.0 11.0 0.00 0.00 0.00 86 1005.5
20260902072341 60 150 2.0 11.0 0.00 0.00 0.00 86 1005.5
20260902071346 59 117 3.0 11.0 0.00 0.00 0.00 87 1005.5
20260902070322 59 138 2.0 11.0 0.00 0.00 0.00 87 1005.7
20260902064157 59 207 2.0 8.0 0.00 0.00 0.00 87 1005.7
20260902062048 59 123 0.0 3.0 0.00 0.00 0.00 87 1005.9
20260902061034 59 125 2.0 9.0 0.00 0.00 0.00 87 1005.8
20260902060042 59 185 2.0 9.0 0.00 0.00 0.00 86 1005.9
20260902053919 60 150 0.0 7.0 0.00 0.00 0.00 84 1006.0
20260902052853 59 147 0.0 3.0 0.00 0.00 0.00 84 1006.1
20260902051819 60 213 0.0 0.0 0.00 0.00 0.00 83 1006.2
20260902045641 60 138 0.0 0.0 0.00 0.00 0.00 82 1006.2
20260902044648 59 116 1.0 4.0 0.00 0.00 0.00 83 1006.3
20260902043618 59 66 0.0 3.0 0.00 0.00 0.00 84 1006.3
20260902042636 60 162 0.0 0.0 0.00 0.00 0.00 83 1006.3
20260902041603 60 178 1.0 3.0 0.00 0.00 0.00 82 1006.4
20260902040619 60 192 0.0 0.0 0.00 0.00 0.00 82 1006.3
20260902035613 60 34 1.0 3.0 0.00 0.00 0.00 81 1006.2
20260902034637 60 97 0.0 3.0 0.00 0.00 0.00 80 1006.2
20260902033640 60 115 0.0 0.0 0.00 0.00 0.00 81 1006.2
20260902032640 60 155 0.0 0.0 0.00 0.00 0.00 80 1006.2
20260902031701 60 116 0.0 0.0 0.00 0.00 0.00 81 1006.2
20260902030634 61 116 0.0 0.0 0.00 0.00 0.00 81 1006.2
20260902025624 61 116 1.0 3.0 0.00 0.00 0.00 80 1006.3
20260902024559 60 174 2.0 6.0 0.00 0.00 0.00 80 1006.2
20260902023541 61 191 3.0 6.0 0.00 0.00 0.00 79 1006.3
20260902022548 62 131 0.0 3.0 0.00 0.00 0.00 79 1006.2
20260902021519 62 128 0.0 3.0 0.00 0.00 0.00 78 1006.2
20260902015352 62 193 1.0 3.0 0.00 0.00 0.00 76 1006.4
20260902014347 63 164 2.0 4.0 0.00 0.00 0.00 76 1006.4
20260902013331 63 163 2.0 6.0 0.00 0.00 0.00 77 1006.4
20260902011206 63 171 2.0 4.0 0.00 0.00 0.00 76 1006.4
20260902010222 63 149 1.0 4.0 0.00 0.00 0.00 75 1006.3
20260902005243 63 153 1.0 6.0 0.00 0.00 0.00 75 1006.2
20260902004238 63 140 1.0 6.0 0.00 0.00 0.00 76 1006.3
20260902003254 63 159 2.0 5.0 0.00 0.00 0.00 76 1006.3
20260902002306 63 196 2.0 8.0 0.00 0.00 0.00 75 1006.3
20260902001246 64 170 2.0 8.0 0.00 0.00 0.00 74 1006.3
20260902000219 64 188 3.0 7.0 0.00 0.00 0.00 74 1006.2
20260901235229 64 141 3.0 6.0 0.00 0.00 0.00 73 1006.3
20260901234219 65 171 2.0 9.0 0.00 0.00 0.00 72 1006.3
20260901233200 65 155 3.0 9.0 0.00 0.00 0.00 72 1006.3
20260901232223 65 157 4.0 11.0 0.00 0.00 0.00 71 1006.3
20260901230054 65 172 8.0 15.0 0.00 0.00 0.00 72 1006.3
20260901225046 65 180 9.0 16.0 0.00 0.00 0.00 72 1006.2
20260901224038 65 205 8.0 16.0 0.00 0.00 0.00 72 1006.3
20260901223100 65 169 9.0 16.0 0.00 0.00 0.00 72 1006.3
20260901220910 65 186 9.0 16.0 0.00 0.00 0.00 72 1006.4
20260901214725 65 167 5.0 19.0 0.00 0.00 0.00 74 1006.4
20260901213706 64 159 6.0 19.0 0.00 0.00 0.00 75 1006.6
20260901212715 64 159 5.0 11.0 0.00 0.00 0.00 76 1006.7
20260901211720 65 169 5.0 12.0 0.00 0.00 0.00 75 1006.8
20260901210705 64 182 5.0 15.0 0.00 0.00 0.00 76 1006.8
20260901205704 64 163 6.0 15.0 0.00 0.00 0.00 76 1006.9
20260901204636 64 203 5.0 12.0 0.00 0.00 0.00 76 1006.9
20260901202519 65 136 8.0 15.0 0.00 0.00 0.00 74 1007.0
20260901201515 66 169 5.0 15.0 0.00 0.00 0.00 73 1006.9
20260901200457 64 165 5.0 15.0 0.00 0.00 0.00 76 1006.8
20260901195504 64 184 7.0 15.0 0.00 0.00 0.00 76 1006.9
20260901193413 63 178 6.0 10.0 0.00 0.00 0.00 81 1006.9
20260901192414 63 117 3.0 8.0 0.00 0.00 0.00 80 1007.0